Погода в Первомайском

Россия / Санкт-Петербург и Ленинградская область     60°21′29″N   29°44′17″E
темп.,
°C
ветер,
м/с
пор.,
м/с
влажн.,
%
обл.,
%
осадки,
мм/ч
давл.,
гПа
погр.,
м
5 августа, чт
чт500:00+12з12765 0.0 101662
03:00+12зюз127730 0.1 101692
06:00+12сз017545 0.1 101621
09:00+17ююз115779 0.2 1017512
12:00+18ююз225121 0.1 10171241
15:00+20ююз224262 0.2 10161767
18:00+17в235467 0.0 1017390
21:00+14св236771 0.0 101777
6 августа, пт
пт600:00+13всв247187 0.0 101796
03:00+12св347227 0.0 1017103
06:00+12св38825 0.0 1017196
09:00+17св47556 0.0 1017561
12:00+20всв58455 0.0 10161876
15:00+20всв58435 0.0 10151828
18:00+18всв51152100 0.0 10151597
21:00+15всв51167100 0.0 1015799
7 августа, сб
сб700:00+14всв6137292 0.0 1014893
03:00+13всв61184100 0.0 1013787
06:00+14всв61385100 0.0 1012620
09:00+16всв7137799 0.0 1011718
12:00+15всв71492100 1.3 1011655
15:00+15в61295100 2.1 1010723
18:00+15всв61296100 2.1 1009644
21:00+15в51097100 5.3 1009504
8 августа, вс
вс800:00+15в4898100 1.9 1009437
03:00+15всв2598100 2.1 1008316
06:00+15в1299100 0.1 1008163
09:00+16юв129693 0.1 1009211
12:00+17зсз019292 0.1 1010204
15:00+19ю118376 0.7 1011325
18:00+19вюв218340 1.1 1011235
21:00+16всв239666 1.2 1013115
9 августа, пн
пн900:00+15всв249671 0.0 1013119
03:00+14в2396100 0.0 1014103
06:00+14вюв239616 0.0 1014115
09:00+17в338494 0.0 1014411
12:00+21вюв336796 0.0 1014857
15:00+22в4460100 0.0 1014928
18:00+20всв456799 0.0 1013508
21:00+16всв51186100 0.0 1012337